DAH3005 LPPT-DAAG

Flight info

Callsign DAH3005
Flight time N/A
Altitude 36000
Route DUZOP DCT LASIB DCT OXACA DCT ALCOL DCT KOSEL DCT DIMER DCT RINDI DCT MAR
Aircraft B738/M-SDE2E3FGHIRWXY/LB1

Departure

Time 2026-05-07 11:08
Airport Lisbon Humberto Delgado Airport (LPPT)

Arrival

Time N/A
Airport Houari Boumediene Airport (DAAG)
Time Latitude Longitude Altitude Speed Heading
2026-05-07 10:26 38.76780 -9.13572 350 ft 0 kts 258°
2026-05-07 10:59 38.76781 -9.13567 350 ft 3 kts 258°
2026-05-07 10:59 38.76786 -9.13534 353 ft 4 kts 258°
2026-05-07 10:59 38.76791 -9.13503 355 ft 3 kts 258°
2026-05-07 10:59 38.76801 -9.13476 352 ft 4 kts 211°
2026-05-07 11:00 38.76824 -9.13472 355 ft 4 kts 169°
2026-05-07 11:00 38.76834 -9.13474 353 ft 1 kts 168°
2026-05-07 11:02 38.76823 -9.13472 355 ft 5 kts 168°
2026-05-07 11:03 38.76788 -9.13463 351 ft 5 kts 168°
2026-05-07 11:03 38.76753 -9.13453 350 ft 5 kts 168°
2026-05-07 11:03 38.76719 -9.13444 355 ft 5 kts 167°
2026-05-07 11:03 38.76684 -9.13443 351 ft 6 kts 197°
2026-05-07 11:04 38.76654 -9.13498 355 ft 9 kts 258°
2026-05-07 11:04 38.76640 -9.13574 354 ft 9 kts 262°
2026-05-07 11:04 38.76629 -9.13648 360 ft 8 kts 258°
2026-05-07 11:04 38.76617 -9.13719 355 ft 8 kts 258°
2026-05-07 11:05 38.76605 -9.13789 350 ft 8 kts 258°
2026-05-07 11:05 38.76594 -9.13857 353 ft 8 kts 258°
2026-05-07 11:05 38.76582 -9.13922 355 ft 7 kts 257°
2026-05-07 11:05 38.76566 -9.13997 356 ft 15 kts 244°
2026-05-07 11:06 38.76509 -9.14096 358 ft 13 kts 241°
2026-05-07 11:06 38.76504 -9.14205 355 ft 13 kts 287°
2026-05-07 11:06 38.76539 -9.14309 352 ft 13 kts 293°
2026-05-07 11:06 38.76595 -9.14402 350 ft 13 kts 346°
2026-05-07 11:07 38.76680 -9.14370 355 ft 13 kts 21°
2026-05-07 11:07 38.76910 -9.14249 357 ft 78 kts 22°
2026-05-07 11:07 38.77681 -9.13837 352 ft 159 kts 22°
2026-05-07 11:07 38.78846 -9.13175 826 ft 196 kts 22°
2026-05-07 11:08 38.80160 -9.12447 1655 ft 215 kts 20°
2026-05-07 11:08 38.81598 -9.11547 2170 ft 233 kts 27°
2026-05-07 11:08 38.82974 -9.10529 2663 ft 229 kts 29°
2026-05-07 11:08 38.84337 -9.09490 3168 ft 228 kts 28°
2026-05-07 11:09 38.85712 -9.08447 3697 ft 230 kts 28°
2026-05-07 11:09 38.87022 -9.07265 4221 ft 234 kts 45°
2026-05-07 11:09 38.87822 -9.05426 4768 ft 243 kts 74°
2026-05-07 11:09 38.87819 -9.03220 5324 ft 258 kts 102°
2026-05-07 11:10 38.87131 -9.01033 5907 ft 268 kts 115°
2026-05-07 11:10 38.86219 -8.98950 6451 ft 267 kts 118°
2026-05-07 11:10 38.85258 -8.96898 6963 ft 269 kts 120°
2026-05-07 11:10 38.84286 -8.94837 7482 ft 271 kts 120°
2026-05-07 11:11 38.83313 -8.92765 8009 ft 271 kts 120°
2026-05-07 11:11 38.82355 -8.90707 8534 ft 271 kts 120°
2026-05-07 11:11 38.81390 -8.88623 9086 ft 272 kts 120°
2026-05-07 11:11 38.80416 -8.86510 9576 ft 281 kts 121°
2026-05-07 11:12 38.79406 -8.84312 10160 ft 292 kts 121°
2026-05-07 11:12 38.78336 -8.81977 10379 ft 317 kts 121°
2026-05-07 11:12 38.77188 -8.79472 10570 ft 341 kts 121°
2026-05-07 11:12 38.75934 -8.76730 10775 ft 363 kts 121°
2026-05-07 11:13 38.74653 -8.73928 11251 ft 374 kts 121°
2026-05-07 11:13 38.73332 -8.71036 11919 ft 379 kts 121°
2026-05-07 11:13 38.71988 -8.68095 12615 ft 384 kts 121°
2026-05-07 11:13 38.70630 -8.65127 13300 ft 389 kts 121°
2026-05-07 11:14 38.69250 -8.62112 13957 ft 394 kts 121°
2026-05-07 11:14 38.67857 -8.59072 14594 ft 397 kts 121°
2026-05-07 11:14 38.66450 -8.56005 15236 ft 401 kts 121°
2026-05-07 11:14 38.65032 -8.52917 15843 ft 405 kts 121°
2026-05-07 11:15 38.63594 -8.49789 16455 ft 409 kts 121°
2026-05-07 11:15 38.62163 -8.46677 17020 ft 413 kts 121°
2026-05-07 11:15 38.60695 -8.43490 17590 ft 418 kts 121°
2026-05-07 11:15 38.59213 -8.40274 18164 ft 422 kts 121°
2026-05-07 11:16 38.57712 -8.37023 18675 ft 426 kts 121°
2026-05-07 11:16 38.56200 -8.33748 19186 ft 429 kts 121°
2026-05-07 11:16 38.54678 -8.30456 19690 ft 432 kts 122°
2026-05-07 11:16 38.53136 -8.27126 20171 ft 436 kts 122°
2026-05-07 11:17 38.51584 -8.23776 20652 ft 440 kts 122°
2026-05-07 11:17 38.50017 -8.20397 21108 ft 443 kts 122°
2026-05-07 11:17 38.48438 -8.16997 21544 ft 447 kts 122°
2026-05-07 11:17 38.46862 -8.13607 21983 ft 450 kts 122°
2026-05-07 11:18 38.45255 -8.10154 22416 ft 454 kts 122°
2026-05-07 11:18 38.43638 -8.06682 22841 ft 457 kts 122°
2026-05-07 11:18 38.41999 -8.03168 23239 ft 461 kts 122°
2026-05-07 11:18 38.40350 -7.99635 23606 ft 465 kts 122°
2026-05-07 11:19 38.38686 -7.96077 23959 ft 468 kts 122°
2026-05-07 11:19 38.37014 -7.92503 24331 ft 470 kts 122°
2026-05-07 11:19 38.35336 -7.88921 24684 ft 472 kts 123°
2026-05-07 11:19 38.33664 -7.85355 25013 ft 475 kts 123°
2026-05-07 11:20 38.31962 -7.81730 25334 ft 478 kts 123°
2026-05-07 11:20 38.30252 -7.78091 25662 ft 480 kts 123°
2026-05-07 11:20 38.28531 -7.74431 25966 ft 483 kts 123°
2026-05-07 11:20 38.26797 -7.70750 26272 ft 486 kts 123°
2026-05-07 11:21 38.25056 -7.67058 26576 ft 488 kts 123°
2026-05-07 11:21 38.23306 -7.63350 26879 ft 490 kts 123°
2026-05-07 11:21 38.21545 -7.59623 27156 ft 493 kts 123°
2026-05-07 11:21 38.19776 -7.55883 27422 ft 495 kts 123°
2026-05-07 11:22 38.17991 -7.52115 27703 ft 498 kts 123°
2026-05-07 11:22 38.16202 -7.48343 27977 ft 500 kts 123°
2026-05-07 11:22 38.14401 -7.44547 28274 ft 501 kts 123°
2026-05-07 11:22 38.12598 -7.40753 28662 ft 500 kts 123°
2026-05-07 11:23 38.10820 -7.37015 29099 ft 499 kts 123°
2026-05-07 11:23 38.09029 -7.33253 29524 ft 497 kts 123°
2026-05-07 11:23 38.07233 -7.29487 29862 ft 498 kts 123°
2026-05-07 11:23 38.05512 -7.25657 30131 ft 501 kts 117°
2026-05-07 11:24 38.04217 -7.21543 30419 ft 503 kts 109°
2026-05-07 11:24 38.03366 -7.17237 30733 ft 504 kts 99°
2026-05-07 11:24 38.02985 -7.12807 31015 ft 504 kts 95°
2026-05-07 11:24 38.02715 -7.08361 31250 ft 506 kts 94°
2026-05-07 11:25 38.02464 -7.03908 31509 ft 507 kts 94°
2026-05-07 11:25 38.02209 -6.99509 31798 ft 507 kts 95°
2026-05-07 11:25 38.01932 -6.95043 32073 ft 507 kts 95°
2026-05-07 11:25 38.01639 -6.90578 32302 ft 508 kts 95°
2026-05-07 11:26 38.01332 -6.86103 32554 ft 509 kts 95°
2026-05-07 11:26 38.01019 -6.81628 32846 ft 509 kts 96°
2026-05-07 11:26 38.00701 -6.77152 33090 ft 509 kts 96°
2026-05-07 11:26 38.00381 -6.72670 33308 ft 511 kts 96°
2026-05-07 11:27 38.00059 -6.68181 33555 ft 511 kts 96°
2026-05-07 11:27 37.99738 -6.63690 33850 ft 511 kts 96°
2026-05-07 11:27 37.99416 -6.59221 34131 ft 510 kts 96°
2026-05-07 11:27 37.99094 -6.54751 34408 ft 508 kts 96°
2026-05-07 11:28 37.98770 -6.50296 34684 ft 507 kts 96°
2026-05-07 11:28 37.98446 -6.45855 34918 ft 506 kts 96°
2026-05-07 11:28 37.97791 -6.36961 34908 ft 511 kts 96°
2026-05-07 11:29 37.97128 -6.28035 34904 ft 508 kts 96°
2026-05-07 11:29 37.96460 -6.19145 34912 ft 505 kts 96°
2026-05-07 11:30 37.95789 -6.10290 34916 ft 504 kts 96°
2026-05-07 11:30 37.95112 -6.01445 34927 ft 505 kts 96°
2026-05-07 11:31 37.94512 -5.92567 34908 ft 506 kts 95°
2026-05-07 11:31 37.94021 -5.83666 34920 ft 508 kts 94°
2026-05-07 11:32 37.93261 -5.70239 34919 ft 511 kts 95°
2026-05-07 11:33 37.92722 -5.61238 34926 ft 513 kts 95°
2026-05-07 11:33 37.92171 -5.52215 34915 ft 514 kts 95°